Погода в Тауранге

Новая Зеландия     37°41′52″S   176°09′29″E
темп.,
°C
ветер,
м/с
пор.,
м/с
влажн.,
%
обл.,
%
осадки,
мм/ч
давл.,
гПа
погр.,
м
12 августа, пт
пт1200:00+6ю39704 0.0 1019511
03:00+6ююз37715 0.0 1019326
06:00+5юз36773 0.0 1020200
09:00+8ю35635 0.0 1020356
12:00+12ю244710 0.0 10201458
15:00+14ю243895 0.0 10182020
18:00+8ююз25642 0.0 1020224
21:00+6ююз24715 0.0 102297
13 августа, сб
сб1300:00+5юз24740 0.0 1022108
03:00+4юз24770 0.0 1023104
06:00+3ююз248137 0.0 1024113
09:00+7юз246275 0.0 1025265
12:00+13зсз12331 0.0 10241044
15:00+14з23350 0.0 10231239
18:00+8юз34640 0.0 1024124
21:00+7ююз24740 0.0 102683
14 августа, вс
вс1400:00+5ю23740 0.0 102884
03:00+4ююз22720 0.0 102875
06:00+4ююз21740 0.0 102963
09:00+8ю11600 0.0 1030178
12:00+12ссз23530 0.0 1029766
15:00+13с23550 0.0 1027693
18:00+8зсз22850 0.0 1028155
21:00+7юз21903 0.0 102979
15 августа, пн
пн1500:00+6юз23872 0.0 102973
03:00+6юз21915 0.0 102962
06:00+5ююз119198 0.0 102958
09:00+8юв1174100 0.0 1030149
12:00+12ссв2263100 0.0 1030626
15:00+12св2470100 0.0 1029598
18:00+9вюв1290100 0.0 1029135
21:00+9ююв1390100 0.0 1030117
16 августа, вт
вт1600:00+11с1390100 0.1 1029250
03:00+13ссв51085100 0.3 1028896
06:00+13ссв51091100 0.9 1028863
09:00+14с51192100 0.8 1028911
12:00+14с51191100 1.9 10281024
15:00+14с51192100 1.1 1026960
18:00+14ссв61293100 1.9 1025938
21:00+14с61394100 1.0 10261012